DEWWG EDXW-EDXW

Flight info

Callsign DEWWG
Flight time 0h 14m
Altitude
Route
Aircraft SF50

Departure

Time 2026-05-08 21:22
Airport Westerland Sylt Airport (EDXW)

Arrival

Time 2026-05-08 21:36
Airport Westerland Sylt Airport (EDXW)
Time Latitude Longitude Altitude Speed Heading
2026-05-08 21:21 54.72384 8.67255 3991 ft 260 kts 247°
2026-05-08 21:22 54.72255 8.64143 3976 ft 265 kts 274°
2026-05-08 21:22 54.72525 8.60974 3724 ft 258 kts 278°
2026-05-08 21:22 54.72806 8.58089 3461 ft 234 kts 278°
2026-05-08 21:22 54.73098 8.55225 3197 ft 248 kts 278°
2026-05-08 21:23 54.73392 8.52316 2939 ft 244 kts 278°
2026-05-08 21:23 54.73686 8.49402 2713 ft 246 kts 278°
2026-05-08 21:23 54.73931 8.46482 2701 ft 245 kts 276°
2026-05-08 21:23 54.74115 8.43539 2704 ft 247 kts 274°
2026-05-08 21:24 54.74259 8.40608 2701 ft 247 kts 273°
2026-05-08 21:24 54.74414 8.37620 2700 ft 246 kts 274°
2026-05-08 21:24 54.74571 8.34668 2701 ft 241 kts 274°
2026-05-08 21:24 54.75041 8.32104 2688 ft 221 kts 306°
2026-05-08 21:25 54.76271 8.30762 2615 ft 209 kts 350°
2026-05-08 21:25 54.77696 8.30579 2468 ft 203 kts
2026-05-08 21:25 54.79096 8.30603 2312 ft 200 kts
2026-05-08 21:25 54.80490 8.30685 2155 ft 201 kts
2026-05-08 21:26 54.81881 8.30817 2014 ft 199 kts
2026-05-08 21:26 54.83223 8.30991 2011 ft 185 kts
2026-05-08 21:26 54.84436 8.31205 1917 ft 164 kts 23°
2026-05-08 21:26 54.85355 8.32139 1824 ft 146 kts 43°
2026-05-08 21:27 54.86148 8.33109 1768 ft 134 kts 41°
2026-05-08 21:27 54.86906 8.34034 1605 ft 132 kts 42°
2026-05-08 21:27 54.87552 8.35080 1456 ft 120 kts 55°
2026-05-08 21:27 54.88120 8.36026 1308 ft 110 kts 47°
2026-05-08 21:28 54.88703 8.36805 1142 ft 103 kts 47°
2026-05-08 21:28 54.89267 8.37530 1003 ft 95 kts 47°
2026-05-08 21:28 54.89831 8.37965 964 ft 92 kts
2026-05-08 21:28 54.90394 8.37454 989 ft 98 kts 322°
2026-05-08 21:29 54.90969 8.36769 1013 ft 99 kts 335°
2026-05-08 21:29 54.91530 8.36080 976 ft 98 kts 332°
2026-05-08 21:29 54.92105 8.35387 952 ft 102 kts 332°
2026-05-08 21:29 54.92695 8.34728 948 ft 101 kts 341°
2026-05-08 21:30 54.93270 8.33946 849 ft 118 kts 283°
2026-05-08 21:30 54.92884 8.33029 565 ft 93 kts 193°
2026-05-08 21:30 54.92303 8.32922 237 ft 81 kts 158°
2026-05-08 21:30 54.91867 8.33375 35 ft 65 kts 139°
2026-05-08 21:31 54.91551 8.33801 29 ft 72 kts 147°
2026-05-08 21:31 54.90972 8.34492 56 ft 134 kts 141°
2026-05-08 21:31 54.90300 8.35478 376 ft 98 kts 92°
2026-05-08 21:31 54.90741 8.36629 667 ft 135 kts 52°
2026-05-08 21:32 54.91604 8.36047 1102 ft 149 kts 333°
2026-05-08 21:32 54.92500 8.35115 1088 ft 154 kts 335°
2026-05-08 21:32 54.93450 8.34202 1082 ft 156 kts 335°
2026-05-08 21:32 54.93682 8.32711 1296 ft 136 kts 228°
2026-05-08 21:33 54.92628 8.32518 572 ft 198 kts 150°
2026-05-08 21:33 54.91458 8.33874 53 ft 223 kts 142°
2026-05-08 21:33 54.90195 8.35478 648 ft 137 kts 143°
2026-05-08 21:33 54.89609 8.36195 3233 ft 125 kts 143°
2026-05-08 21:34 54.89092 8.36911 3498 ft 156 kts 139°
2026-05-08 21:34 54.88313 8.38281 3821 ft 158 kts 130°
2026-05-08 21:34 54.88022 8.39988 3901 ft 156 kts 73°
2026-05-08 21:34 54.88674 8.39399 2417 ft 233 kts 282°
2026-05-08 21:35 54.89710 8.37448 1311 ft 220 kts 327°
2026-05-08 21:35 54.90976 8.36037 1020 ft 174 kts 333°
2026-05-08 21:35 54.91884 8.35061 1065 ft 136 kts 332°
2026-05-08 21:35 54.92603 8.34231 991 ft 120 kts 331°
2026-05-08 21:36 54.92864 8.33180 735 ft 101 kts 223°
2026-05-08 21:36 54.92242 8.32983 206 ft 92 kts 156°
2026-05-08 21:36 54.91773 8.33508 32 ft 66 kts 141°
2026-05-08 21:36 54.91463 8.33867 29 ft 34 kts 155°
2026-05-08 21:37 54.91316 8.34006 29 ft 20 kts 210°
2026-05-08 21:37 54.91190 8.33639 27 ft 55 kts 238°
2026-05-08 21:37 54.91065 8.33270 27 ft 20 kts 232°
2026-05-08 21:37 54.91016 8.33092 27 ft 13 kts 251°
2026-05-08 21:38 54.91033 8.32981 27 ft 21 kts 300°
2026-05-08 21:38 54.91160 8.32717 22 ft 30 kts 314°
2026-05-08 21:38 54.91287 8.32490 21 ft 8 kts 358°